Regional Weather Roundup
Issued by NWS

Home | Current Version | Previous Version | Graphics & Text | Print | Product List | Glossary On
Versions: 1 2 3 4 5 6 7 8 9 10 11 12 13 14 15 16 17 18 19 20 21 22 23 24 25 26 27 28 29 30 31 32 33 34 35 36 37 38 39 40 41 42 43 44 45 46 47 48 49 50
000
ASUS43 KDTX 180910
RWRMI
MICHIGAN HOURLY REGIONAL WEATHER ROUNDUP
NATIONAL WEATHER SERVICE DETROIT/PONTIAC MI
400 AM EST THU DEC 18 2014

NOTE: "FAIR" INDICATES FEW OR NO CLOUDS BELOW 12,000 FEET WITH NO
SIGNIFICANT WEATHER AND/OR OBSTRUCTION TO VISIBILITY.

MIZ047>049-052>055-059>063-066>070-074>076-081>083-181000-
SOUTHEAST LOWER MICHIGAN

CITY           SKY/WX    TMP DP  RH WIND       PRES   REMARKS
ADRIAN         CLOUDY    29  21  72 W8        30.22R
ALMA           CLOUDY    29  27  92 W9        30.18S
ANN ARBOR      CLOUDY    29  21  72 NW9       30.18S
BAD AXE        CLOUDY    28  25  89 NW8       30.15S
DETROIT CITY   CLOUDY    31  22  69 W7        30.18S
DETROIT        CLOUDY    30  21  69 W10       30.19S
FLINT          CLOUDY    31  24  75 W14       30.17S
GROSSE ILE     CLOUDY    30  21  69 W8        30.18S
HILLSDALE      CLOUDY    28  24  83 W9        30.19S
HOWELL         CLOUDY    28  24  84 W10       30.17S

CITY           SKY/WX    TMP DP  RH WIND       PRES   REMARKS
JACKSON        CLOUDY    28  21  75 W8        30.19S
LAMBERTVILLE   CLOUDY    32  23  69 W6        30.22S
LANSING        CLOUDY    29  23  78 W10       30.19S
LAPEER         NOT AVBL
MASON          CLOUDY    28  23  80 W7        30.19S
MONROE         CLOUDY    30  23  74 W6        30.19S
MT. CLEMENS    CLOUDY    29  27  90 W10       30.14F
PONTIAC        CLOUDY    28  22  78 W13       30.14S
PORT HOPE        N/A     28  22  78 W7        30.14R
PORT HURON     CLOUDY    28  27  93 W9        30.16S
TRI CITIES     CLOUDY    31  27  85 W10       30.17S
YPSILANTI      CLOUDY    32  21  64 W13       30.19S
$$
MIZ043>046-050>051-056>058-064>065-071>073-077>080-181000-
SOUTHWEST LOWER MICHIGAN

CITY           SKY/WX    TMP DP  RH WIND       PRES   REMARKS
BATTLE CREEK   CLOUDY    30  22  72 W8        30.21S
BENTON HARBOR  CLOUDY    28  22  78 W6        30.26S
BIG RAPIDS     CLOUDY    30  30  99 NW5       30.17S
COLDWATER      CLOUDY    28  22  78 W8        30.21F
HOLLAND        CLOUDY    33  23  66 NW6       30.23S
GRAND RAPIDS   CLOUDY    30  24  78 W9        30.21F
KALAMAZOO      CLOUDY    29  22  75 W7        30.22F
MARSHALL       CLOUDY    28  22  79 W7        30.20F
MUSKEGON       CLOUDY    32  25  75 W7        30.22F
$$
MIZ016>042-181000-
NORTHERN LOWER MICHIGAN

CITY           SKY/WX    TMP DP  RH WIND       PRES   REMARKS
ALPENA         CLOUDY    25  20  81 NW8       30.16R
BEAVER ISLAND  CLOUDY    24  21  88 N5        30.22R
BELLAIRE       CLOUDY    28  24  86 NW3       30.21R
CADILLAC       LGT SNOW  28  26  89 NW6       30.15R
CHARLEVOIX     CLOUDY    26  23  89 N10       30.23S
FRANKFORT      CLOUDY    30  27  87 N7        30.22S
GAYLORD        CLOUDY    21  19  92 VRB7      30.14R
GRAYLING       CLOUDY    26  24  93 NW9       30.16R
HARBOR SPRINGS CLOUDY    24  19  83 N7        30.19S
HOUGHTON LAKE  CLOUDY    26  23  88 NW10      30.15R
MANISTEE       CLOUDY    30  27  86 N6        30.21F
OSCODA         CLOUDY    26  23  89 NW10      30.15S
PELLSTON       CLOUDY    23  19  85 NW7       30.20R
TRAVERSE CITY  FLURRIES  30  26  85 NW8       30.20R
$$
MIZ007>008-015-181000-
EASTERN UPPER MICHIGAN

CITY           SKY/WX    TMP DP  RH WIND       PRES   REMARKS
KINROSS        PTCLDY    16  16 100 N8        30.19R
MACKINAC ISLAN MOCLDY    22  20  94 N12       30.19R
NEWBERRY       CLEAR     17  16  95 N7        30.21R
S. S. MARIE    PTCLDY    14   8  77 NW5       30.17F
$$
MIZ004>006-011>014-085-181000-
CENTRAL UPPER MICHIGAN

CITY           SKY/WX    TMP DP  RH WIND       PRES   REMARKS
MANISTIQUE     CLOUDY    24  21  90 N8        30.23R
ESCANABA       CLOUDY    27  19  74 N8        30.24S
MENOMINEE      CLOUDY    27  19  74 N8        30.26S
SAWYER-GWINN   CLOUDY    25  21  85 N8        30.24R
$$
MIZ001>003-009>011-084-181000-
WESTERN UPPER MICHIGAN

CITY           SKY/WX    TMP DP  RH WIND       PRES   REMARKS
IRON MOUNTAIN  CLOUDY    24  18  77 N13       30.25R
HOUGHTON       PTCLDY     6   2  83 CALM      30.28R
COPPER HARBOR    N/A     26  17  68 E10G16    30.30S
IRONWOOD       CLOUDY    23  18  80 E7        30.27R
$$

ABBREVIATIONS USED IN REMARKS
   TC - TEMPERATURE IN CELSIUS
  WCI - WIND CHILL INDEX
   HX - HEAT INDEX
  VSB - VISIBILITY



USA.gov is the U.S. government's official web portal to all federal, state and local government web resources and services.